Torna al catalogo

CZ-6A R/B

AttivoPO
NORAD 65822·ROCKET BODY·🇨🇳 China

Lanciato Sep 27, 2025 da Taiyuan Satellite Launch Center

Loading…

Prossimi Passaggi (prossime 24 ore)

TLE

AggiornatoSource: Space-Track

Epoca: Sep 14, 2026, 18:00 UTC

1 65822U 25220F   26257.75027372  .00000059  00000-0  28765-4 0  9995
2 65822  86.5152 359.7967 0105790 116.8799 244.3235 13.94215684 49088

Traccia CZ-6A R/B in tempo reale con AllMySat

Download on the App Store